Regional Weather Roundup
Issued by NWS

Home | Current Version | Previous Version | Graphics & Text | Print | Product List | Glossary On
Versions: 1 2 3 4 5 6 7 8 9 10 11 12 13 14 15 16 17 18 19 20 21 22 23 24 25 26 27 28 29 30 31 32 33 34 35 36 37 38 39 40 41 42 43 44 45 46 47 48 49 50
000
ASUS45 KBOU 170107
RWRCO

WEATHER ROUNDUP FOR COLORADO
NATIONAL WEATHER SERVICE DENVER/BOULDER CO
600 PM MST TUE DEC 16 2014

NOTE: "FAIR" INDICATES FEW OR NO CLOUDS BELOW 12000 FEET WITH NO
SIGNIFICANT WEATHER AND/OR OBSTRUCTIONS TO VISIBILITY.

COZ001>005-013-030-031-170200-
...NORTHWEST COLORADO...

CITY           SKY/WX    TMP DP  RH WIND       PRES   REMARKS
CRAIG          CLOUDY    21  19  92 CALM      30.06S
HAYDEN         PTCLDY    25  19  80 NE3       30.05S
MEEKER         PTCLDY    19  16  88 CALM      30.05F
MOUNT WERNER   NOT AVBL
STEAMBOAT SPGS PTCLDY    24  21  91 CALM      30.05S
WALDEN         MOCLDY    18  14  86 SE3       30.04S
$$

COZ006>008-011-170200-
...WEST CENTRAL VALLEYS...

CITY           SKY/WX    TMP DP  RH WIND       PRES   REMARKS
GRAND JUNCTION CLOUDY    33  28  81 CALM      30.07S
MONTROSE       MOCLDY    39  27  62 CALM      30.06F
EAGLE          CLEAR     19  18  93 CALM      30.14R
RIFLE          CLOUDY    31  25  78 S3        30.08R
DELTA          MOCLDY    38  28  66 S5        30.07R
NUCLA          MOCLDY    36  25  64 CALM      30.10S
$$

COZ017>023-064>068-170200-
...SOUTHWEST COLORADO...

CITY           SKY/WX    TMP DP  RH WIND       PRES   REMARKS
DURANGO        CLOUDY    36  24  62 N6        30.10F
CORTEZ         PTCLDY    42  24  49 E5        30.06F
PAGOSA SPRINGS CLOUDY    31  27  85 CALM      30.13R
TELLURIDE      CLOUDY   N/A N/A N/A SE16      30.10
WOLF CREEK PAS PTCLDY    16  12  86 MISG      30.13F
$$

COZ009-010-012-014-032>034-037-058>063-170200-
...CENTRAL COLORADO...

CITY           SKY/WX    TMP DP  RH WIND       PRES   REMARKS
ASPEN          CLOUDY    28  23  81 SW5       30.05S WCI  23
BUENA VISTA    MOCLDY    32  12  43 SE12      30.06R WCI  23
COPPER MTN     PTCLDY    27  12  54 SW8G22    30.10S WCI  18
BERTHOUD PASS  LGT SNOW  18  12  79 MISG      30.11S
COTTONWOOD PAS MOCLDY    30  14  51 NE3       30.08R
GUNNISON       MOCLDY    27  18  69 N3        30.12S
KREMMLING      PTCLDY    10   7  85 CALM      30.12S
LEADVILLE      CLOUDY    27  15  61 S3        30.05S
MONARCH PASS   MOCLDY    19  12  73 MISG      30.20S
SALIDA         MOCLDY    38  14  37 SW7G16    30.13S
SUNLIGHT       PTCLDY    25  23  93 CALM      30.09F
WILKERSON PASS PTCLDY    23  14  68 SW9       30.10R WCI  13
$$

COZ069>075-170200-
...SAN LUIS VALLEY/SANGRE DE CRISTO MOUNTAINS...

CITY           SKY/WX    TMP DP  RH WIND       PRES   REMARKS
ALAMOSA        MOCLDY    28  19  69 E8        30.10S WCI  20
LA VETA PASS   PTCLDY    27  14  59 S16G29    30.07S WCI  14
SAGUACHE       MOCLDY    30  12  47 SE5       30.12S WCI  25
$$

COZ035-036-038>040-170200-
...NORTHERN COLORADO FRONT RANGE...

CITY           SKY/WX    TMP DP  RH WIND       PRES   REMARKS
DENVER INTL AP MOCLDY    29  21  72 CALM      30.04R
DMNS CITY PARK   N/A     30  20  66 SE2       30.04F
AURORA         MOCLDY    26  21  79 SW2       30.05S
FRONT RANGE AP NOT AVBL
ERIE MUNI ARPT   N/A     32  24  72 CALM      30.04F
BOULDER MUN AP MOCLDY    32  23  69 CALM      30.03F
CENTENNIAL     MOCLDY    28  20  71 CALM      30.04S
BROOMFIELD     MOCLDY    32  21  64 CALM      30.04
FORT COLLINS   MOCLDY    28  18  64 E5        30.05F WCI  23
LONGMONT       CLOUDY    32  24  70 E6        30.06S WCI  27
$$

COZ041-046-047-076>085-087-088-170200-
...PIKES PEAK/PALMER DIVIDE AND SOUTHERN FOOTHILLS...

CITY           SKY/WX    TMP DP  RH WIND       PRES   REMARKS
COLO. SPRINGS  MOCLDY    29  16  58 S5        30.05S WCI  24
A. F. ACADEMY  PTCLDY    27  16  63 S5        30.03S WCI  21
ELLICOTT       NOT AVBL
FALCON         MOCLDY    24  15  69 SW3       30.04S
FORT CARSON    PTCLDY    29  17  59 S3        30.04S
LIMON          MOCLDY    26  20  77 S9        30.07R WCI  17
MONUMENT HILL  PTCLDY    23  19  86 NW6       30.02S WCI  16
TRINIDAD       CLOUDY    33  26  75 CALM      30.04R
$$

COZ042>045-048>051-090-091-170200-
...NORTHEAST COLORADO...

CITY           SKY/WX    TMP DP  RH WIND       PRES   REMARKS
GREELEY ARPT   MOCLDY    28  18  64 CALM      30.05F
AKRON          CLOUDY    24  22  91 SE12      30.09R WCI  13
BURLINGTON     CLOUDY    30  21  69 SE9       30.12R WCI  22
WRAY           CLOUDY    25  25 100 NE8       30.16R WCI  17
STERLING       MOCLDY    27  23  86 NE8       30.12S WCI  18
HOLYOKE        NOT AVBL
FORT MORGAN    MOCLDY    25  21  86 NE10      30.08S WCI  14
$$

COZ086-089-092>099-170200-
...SOUTHEAST COLORADO...

CITY           SKY/WX    TMP DP  RH WIND       PRES   REMARKS
PUEBLO         PTCLDY    27  18  69 NE8       30.07  WCI  19
LA JUNTA       CLOUDY    30  26  85 NW6       30.06S WCI  24
LAMAR          CLOUDY    35  22  58 E15       30.06F WCI  25
SPRINGFIELD      N/A     40  26  57 S22       30.07S
$$



USA.gov is the U.S. government's official web portal to all federal, state and local government web resources and services.